GEFSNGP_con_probscp_186.txt.gz
Probability
0 0 0 0 1 1 1 1 1 4 8 12 17 22 24 23 23 25 27 27 25 25 27 27 28 29 27 24 24 26 29 31 30 29 28 26 23 20 17 10 4 2 3 3
0 0 0 0 1 2 2 2 2 4 8 13 19 25 27 27 26 27 28 27 25 25 27 29 30 30 29 28 28 30 31 34 35 33 31 28 25 22 19 13 8 5 4 4
0 0 0 0 1 1 3 4 4 6 9 15 22 27 29 28 27 27 26 24 24 24 26 28 30 31 31 32 34 34 35 37 39 39 36 33 29 25 22 19 15 10 6 5
0 0 0 0 0 0 1 2 5 9 14 18 23 26 26 25 25 24 21 20 21 23 25 26 26 29 31 33 35 37 38 39 39 41 41 38 33 29 26 22 18 13 8 6
0 0 0 0 0 0 0 1 5 13 20 22 23 24 22 22 25 24 21 21 22 25 27 29 28 28 30 33 35 37 39 40 40 42 43 40 34 31 28 24 18 13 9 6
0 0 0 0 0 0 0 1 5 14 21 22 22 21 20 23 28 29 27 27 27 30 33 35 34 32 33 36 37 38 40 40 42 43 41 36 32 30 28 24 18 13 9 7
0 0 0 0 0 0 0 1 5 13 19 20 19 19 21 25 30 31 31 30 31 33 37 37 37 37 38 38 38 40 42 43 42 41 37 32 28 27 25 22 17 12 9 8
0 0 0 1 1 1 0 1 7 15 19 19 19 19 21 23 26 28 28 29 28 30 33 32 31 34 36 36 36 39 42 42 40 38 34 30 27 26 25 22 16 12 10 8
2 1 1 2 2 2 2 4 11 18 20 20 20 20 18 18 21 24 25 27 27 27 26 23 22 25 28 30 31 33 35 37 35 33 32 29 28 29 28 25 20 16 12 11
4 3 2 2 3 5 6 8 13 18 18 19 20 20 18 16 18 20 23 25 26 25 22 18 17 19 21 22 24 24 25 28 30 29 29 28 27 28 29 28 25 20 17 16
3 2 1 2 4 6 8 9 11 13 14 15 18 20 18 16 15 16 17 19 21 21 20 18 17 18 18 19 19 19 19 22 25 24 24 23 20 19 21 21 20 18 17 17
1 0 1 2 3 4 6 7 7 8 9 11 14 16 16 15 14 12 11 11 14 16 17 17 17 17 17 18 18 17 17 18 19 18 17 15 13 12 11 10 9 8 8 9
0 0 0 1 1 1 3 3 3 4 6 8 9 11 12 13 12 10 8 7 9 11 14 17 17 17 16 16 16 15 14 14 14 13 10 9 9 10 8 6 4 3 2 2
0 0 0 0 0 0 1 1 1 1 2 4 5 6 8 10 10 9 7 6 7 8 11 15 17 16 14 13 12 12 10 9 9 8 6 4 5 7 8 8 7 5 2 0
0 0 0 0 0 0 0 0 0 0 0 1 2 3 5 6 6 6 6 6 7 7 9 13 14 13 10 9 9 8 8 7 5 3 2 1 1 2 4 7 8 7 3 1
0 0 0 0 0 0 0 0 0 0 0 0 0 0 2 2 2 3 4 5 5 6 8 10 10 9 7 6 5 5 5 5 4 2 1 0 0 0 1 4 6 6 4 3
0 0 0 0 0 0 0 0 0 0 0 0 0 0 0 0 0 1 1 2 2 3 5 7 7 6 6 6 4 3 3 3 2 2 1 0 0 0 1 3 4 4 3 3
0 0 0 0 0 0 0 0 0 0 0 0 0 0 0 0 0 0 0 0 1 2 3 4 4 5 6 5 4 3 3 2 1 0 0 0 0 0 0 1 3 3 3 3
0 0 0 0 0 0 0 0 0 0 0 0 0 0 0 0 0 0 1 1 2 3 3 3 3 4 5 5 4 3 3 2 1 0 0 0 0 0 0 0 2 3 3 3
0 0 0 0 0 0 0 0 0 0 0 0 0 0 0 0 0 0 1 2 3 3 3 3 4 5 6 5 4 4 3 1 0 0 0 0 0 0 0 1 2 3 3 3
0 0 0 0 0 0 0 0 0 0 0 0 0 0 0 0 0 0 1 1 2 2 3 3 4 5 5 5 5 4 3 1 0 0 0 0 0 0 0 1 2 2 2 2
0 0 0 0 0 0 0 0 0 0 0 0 0 0 0 0 0 0 0 0 1 1 1 2 3 2 3 3 4 4 3 2 1 0 0 0 0 0 0 0 1 1 1 1
0 0 0 0 0 0 0 0 0 0 0 0 0 0 0 0 0 0 0 0 0 0 0 1 1 0 1 1 2 3 3 3 1 0 0 0 0 0 0 0 0 0 0 0
0 0 0 0 0 0 0 0 0 0 0 0 0 0 0 0 0 0 0 0 0 0 0 0 0 0 0 0 1 2 3 3 2 0 0 0 0 0 0 0 0 0 0 0
0 0 0 0 0 0 0 0 0 0 0 0 0 0 0 0 0 0 0 0 0 0 0 0 0 0 0 0 0 1 2 2 1 0 0 0 0 0 0 0 0 0 0 0
0 0 0 0 0 0 0 0 0 0 0 0 0 0 0 0 0 0 0 0 0 0 0 0 0 0 0 0 0 0 1 2 1 0 0 0 0 0 0 0 0 0 0 0
0 0 0 0 0 0 0 0 0 0 0 0 0 0 0 0 0 0 0 0 0 0 0 0 0 0 0 0 0 0 1 2 2 1 0 0 0 0 0 0 0 0 0 0

GEFSNGP_con_probscp_192.txt.gz
Probability
0 0 0 0 0 0 0 0 0 1 8 19 28 33 36 35 35 41 48 55 59 60 61 61 60 59 57 57 59 58 52 47 43 43 42 41 40 41 42 42 41 39 36 34
0 0 0 0 0 0 0 0 0 3 11 21 29 35 39 39 40 43 49 55 58 57 58 58 58 57 55 57 60 61 58 54 51 50 50 49 46 45 46 46 44 41 38 36
0 0 0 0 0 0 1 2 4 9 16 22 30 37 42 44 45 48 52 57 59 58 56 55 55 55 55 57 60 63 62 59 57 57 58 57 54 51 52 52 48 43 40 38
0 0 0 0 1 1 2 5 9 14 18 22 31 39 43 45 48 52 57 61 63 60 55 53 55 57 57 57 60 62 61 58 57 57 58 58 57 56 55 55 52 47 41 38
0 0 0 0 2 4 5 8 13 17 19 22 30 37 43 47 49 53 59 63 62 56 52 53 57 60 60 60 60 60 59 56 55 56 56 55 55 55 55 55 52 49 43 37
1 1 1 1 4 7 8 10 15 19 21 25 30 38 45 50 52 52 55 57 54 48 48 52 57 59 61 61 60 59 57 54 53 55 55 53 51 51 51 51 48 45 41 36
0 0 1 3 6 11 13 15 19 23 27 31 36 43 46 48 50 49 47 46 44 41 43 49 51 52 54 55 57 57 55 52 52 52 50 49 48 47 47 46 43 40 37 35
1 3 5 7 11 17 22 24 26 29 33 37 41 45 46 45 44 41 38 36 36 36 37 41 43 42 42 46 49 51 52 52 52 50 47 45 44 43 43 42 38 35 34 34
6 9 14 15 17 23 27 29 31 33 35 37 40 42 43 41 37 32 30 32 33 31 30 34 37 36 36 39 43 44 46 49 50 50 47 44 41 40 42 41 38 36 36 36
12 15 20 22 24 26 28 29 30 31 33 34 35 38 39 36 31 25 25 29 30 27 27 29 31 32 34 38 41 41 42 43 44 46 46 43 39 38 38 39 38 38 38 37
15 18 21 24 26 28 29 28 26 27 28 28 28 30 31 29 23 20 22 25 26 25 25 25 26 28 32 37 40 41 40 38 38 41 41 38 34 31 30 29 28 29 30 31
16 18 20 22 23 25 25 24 23 23 22 21 21 22 23 21 18 17 18 20 22 22 22 21 21 24 27 31 35 37 37 34 33 35 35 32 28 24 20 15 13 13 15 17
14 15 15 16 18 19 19 18 18 18 16 14 13 15 15 14 14 16 17 18 19 18 17 18 19 20 21 24 28 31 30 28 27 29 29 27 25 22 17 10 6 4 4 4
10 9 9 10 12 12 12 12 12 11 9 8 8 9 10 11 12 14 16 17 16 14 14 16 17 18 19 21 24 25 24 23 23 24 25 24 23 21 17 11 7 5 2 0
4 3 4 5 6 6 7 7 7 5 4 4 4 5 7 9 11 12 13 13 12 12 12 14 15 16 19 21 21 21 20 20 20 21 22 22 21 19 14 10 8 7 4 2
1 1 2 4 6 5 4 4 3 2 1 1 1 3 5 7 9 11 11 11 11 11 12 13 12 12 16 18 18 17 16 15 15 17 18 18 17 13 10 7 6 6 5 4
0 2 4 6 6 5 3 1 1 0 0 0 0 2 4 5 7 9 11 11 10 10 10 10 10 10 12 15 15 13 12 11 12 12 12 12 10 8 6 5 4 4 4 4
1 3 6 6 4 3 1 0 0 0 0 0 1 2 3 3 4 6 8 8 7 6 7 7 7 8 9 12 12 11 9 9 9 9 8 6 5 5 5 5 4 4 4 3
1 2 4 4 3 2 1 0 0 0 1 1 2 3 3 3 3 3 3 3 3 3 4 4 3 4 6 8 8 8 7 6 6 6 6 4 3 4 5 4 3 3 3 3
0 1 2 2 2 2 2 1 0 0 1 2 2 2 2 2 1 1 0 0 1 1 2 2 1 3 4 5 5 5 5 4 4 5 5 4 3 3 4 3 3 3 3 3
0 0 1 1 1 1 1 1 0 0 1 1 1 1 1 1 0 0 0 0 0 0 1 1 1 3 5 5 6 5 4 3 3 4 4 3 3 3 3 3 3 3 4 4
0 0 0 0 0 0 0 0 1 1 1 0 0 1 2 2 1 0 0 0 0 0 0 0 1 3 4 6 6 6 5 4 4 3 3 4 3 3 3 3 3 4 4 4
1 1 0 0 0 0 0 0 1 2 1 1 1 2 2 2 1 0 0 0 0 0 0 0 0 1 2 4 5 5 5 5 4 4 4 4 3 3 3 3 3 3 3 3
2 2 1 0 0 0 0 0 1 1 1 1 1 2 1 1 0 0 0 0 0 0 0 0 0 0 0 1 2 3 3 2 3 3 3 4 3 2 2 2 1 1 1 1
2 2 1 0 0 0 0 0 0 0 0 0 1 1 0 0 0 0 0 0 0 0 0 0 0 0 0 0 0 1 1 0 1 2 2 3 3 1 1 1 0 0 1 1
1 1 1 0 0 0 0 0 0 0 0 0 0 0 0 0 0 0 0 0 0 0 0 0 0 0 0 0 0 0 0 0 0 0 1 1 2 1 0 0 0 0 1 2
0 0 0 0 0 0 0 0 0 0 0 0 0 0 0 0 0 0 0 0 0 0 0 0 0 0 0 0 0 0 0 0 0 0 0 0 1 0 0 0 0 0 1 1

GEFSNGP_con_probscp_198.txt.gz
Probability
0 0 0 0 0 0 0 0 3 11 22 30 33 35 41 49 57 63 68 72 78 85 89 89 86 81 76 77 81 78 73 71 71 70 68 66 65 63 63 61 59 58 56 55
0 0 0 0 0 0 0 1 4 13 24 32 37 41 46 53 60 64 65 69 75 82 86 87 86 80 76 78 80 80 77 74 71 69 67 66 64 62 61 60 59 57 56 55
0 0 0 1 1 2 2 3 6 15 26 36 45 50 51 55 61 62 63 66 70 73 76 79 80 78 76 77 78 80 79 75 71 69 67 65 63 61 59 59 59 57 55 54
0 0 1 2 4 5 5 6 10 19 29 41 49 53 53 54 57 62 65 66 65 64 65 68 71 74 75 76 76 77 77 73 70 68 67 66 64 61 60 60 59 57 55 54
0 0 1 4 7 7 8 11 17 25 32 40 47 50 53 54 54 59 64 65 63 61 61 65 68 72 74 74 75 75 74 72 70 70 68 67 66 63 61 60 58 56 55 56
0 0 1 4 7 7 9 17 26 32 34 39 46 51 54 55 53 54 57 59 59 59 60 64 69 72 73 73 72 72 71 70 69 69 67 65 64 62 59 58 56 55 54 55
1 1 3 7 10 11 15 23 31 35 37 42 49 54 54 54 54 52 51 51 51 52 56 60 65 69 71 72 70 67 64 63 62 62 61 60 60 60 58 57 55 52 50 51
7 9 13 18 20 22 25 28 32 35 40 45 50 52 51 51 51 49 47 46 45 48 52 56 60 65 68 68 65 59 55 54 56 57 55 56 58 58 58 57 53 49 47 46
16 20 25 28 30 30 30 29 31 33 37 41 44 46 46 45 43 41 41 41 42 45 48 51 54 59 61 60 56 52 50 50 52 55 54 53 53 53 52 51 48 45 43 42
18 22 26 29 31 30 27 25 26 28 31 34 36 38 39 40 40 39 38 37 37 39 42 43 46 50 53 52 50 50 51 52 52 53 51 48 45 43 41 40 39 40 40 38
17 20 22 25 27 25 22 21 23 26 29 30 30 31 34 37 40 40 38 35 34 35 36 35 37 41 45 48 49 51 53 53 50 45 42 39 34 29 26 25 26 30 32 32
23 24 24 25 25 23 21 22 24 27 29 28 27 28 30 33 36 36 34 33 31 30 30 31 32 35 39 44 47 49 51 49 43 37 32 30 27 21 14 12 13 15 17 19
24 25 25 25 25 24 23 23 24 27 28 27 26 26 26 27 27 26 26 27 25 23 23 25 27 30 34 40 45 46 44 39 34 31 28 26 25 21 14 9 7 6 6 6
18 19 21 22 23 23 21 20 22 25 26 26 24 22 21 20 19 19 19 21 20 19 19 20 22 26 30 35 39 39 34 27 26 27 27 26 26 23 19 15 11 7 3 1
13 14 15 16 16 16 15 16 18 20 21 20 17 14 13 14 15 15 15 15 17 18 18 18 20 24 26 27 28 28 25 21 20 23 24 25 24 22 21 19 15 11 6 2
7 8 9 9 10 9 9 10 12 13 13 11 8 7 9 12 13 13 11 10 13 17 19 18 19 21 21 21 22 23 22 18 17 20 22 22 22 20 19 17 15 11 7 5
2 3 4 6 6 6 6 7 7 7 7 6 4 5 8 11 12 11 9 9 11 16 18 17 17 18 17 18 20 20 18 16 15 19 20 20 19 17 15 13 12 11 9 6
0 1 3 6 6 7 7 8 7 7 6 5 5 6 7 8 9 10 10 10 11 14 15 13 12 14 15 16 16 14 12 12 14 16 16 15 15 14 12 12 11 10 9 7
1 2 4 6 7 8 9 9 9 9 8 7 6 5 5 5 6 8 10 10 10 10 11 9 8 9 10 11 11 10 9 9 11 12 11 9 9 10 10 11 10 9 8 7
3 5 7 8 7 8 9 9 9 8 6 5 4 4 4 5 7 7 7 7 7 7 8 7 5 6 6 7 8 7 7 8 8 8 7 6 6 7 8 8 7 7 7 6
5 7 8 7 6 6 6 6 6 5 4 3 3 4 5 7 8 7 5 4 4 4 4 3 2 3 4 5 5 6 6 6 6 5 5 6 5 5 5 4 4 5 5 5
4 5 5 4 3 2 3 3 4 3 3 3 4 5 7 8 8 6 4 3 3 2 1 0 0 1 1 2 3 4 4 4 3 3 5 6 5 4 3 3 3 4 4 4
4 4 3 2 1 0 1 1 2 2 2 4 5 6 7 7 6 4 3 2 2 1 0 0 0 0 0 1 2 3 3 3 4 5 6 6 5 4 4 4 3 3 3 3
6 5 2 1 0 0 0 0 1 1 2 3 4 4 5 5 4 2 1 1 1 0 0 0 0 0 0 0 1 1 2 3 5 6 6 6 6 6 6 5 4 4 4 4
6 6 3 1 0 0 0 0 0 0 1 1 1 1 2 3 2 1 0 0 0 0 0 0 0 0 0 0 0 0 1 1 3 5 5 5 6 6 6 6 6 6 6 6
4 5 4 2 0 0 0 0 0 0 0 0 0 0 0 1 1 1 0 0 0 0 0 0 0 0 0 0 0 0 0 0 1 1 2 3 4 5 6 6 6 6 6 6
2 4 4 2 1 0 0 0 0 0 0 0 0 0 0 0 0 0 0 0 0 0 0 0 0 0 0 0 0 0 0 0 0 0 0 1 2 3 5 6 6 6 6 6

GEFSNGP_con_probscp_204.txt.gz
Probability
0 0 0 0 0 0 0 1 2 5 9 16 21 26 32 37 40 45 48 48 43 37 36 38 38 38 40 42 45 52 58 54 46 40 33 27 26 28 30 31 28 21 18 18
0 0 0 0 0 1 2 3 6 10 14 18 22 27 32 39 43 45 48 47 42 37 35 34 35 37 38 40 43 49 53 52 46 41 34 29 29 30 31 32 30 24 20 19
0 0 0 0 1 3 5 7 10 15 20 22 25 28 31 37 41 43 46 46 42 37 32 30 31 34 36 36 38 44 47 48 46 43 38 35 35 35 34 33 32 30 25 22
0 0 0 1 2 4 7 10 14 21 27 29 30 33 34 34 36 38 41 44 42 36 31 30 30 32 34 33 33 37 42 45 45 44 41 39 39 39 37 36 35 33 30 27
0 0 0 1 3 5 9 14 19 24 30 33 36 38 38 35 33 34 36 39 38 35 33 31 30 31 32 31 31 34 38 41 43 43 41 39 38 39 40 39 37 34 32 31
0 0 0 2 5 8 12 17 20 24 28 32 36 38 37 34 32 32 32 33 33 33 33 30 27 26 26 26 27 29 32 35 38 39 39 38 38 39 41 41 40 36 32 31
0 0 0 3 8 10 12 15 18 20 24 28 32 33 32 31 29 28 28 27 26 26 27 24 21 21 20 19 18 21 25 29 32 33 33 34 36 37 37 38 39 36 32 29
1 1 2 5 8 10 10 12 14 16 20 24 27 28 27 27 25 23 22 21 18 17 17 15 14 14 14 13 12 13 18 24 27 27 26 26 28 29 28 29 31 31 29 27
5 5 6 8 10 12 12 13 13 13 15 19 22 22 21 21 19 18 18 15 12 10 8 6 6 7 8 9 9 10 12 16 19 20 20 20 20 19 17 17 20 22 23 24
10 10 10 11 12 14 15 16 15 14 13 15 18 19 17 15 13 12 11 9 7 5 2 1 1 2 3 4 6 7 8 10 12 14 16 16 15 12 10 9 10 12 15 17
8 9 10 9 10 12 15 16 17 15 14 14 16 16 12 9 7 5 4 4 3 2 0 0 0 0 1 1 2 4 5 6 8 10 12 13 12 9 6 3 3 5 7 9
4 5 6 6 7 9 12 15 15 14 13 13 12 10 6 3 2 1 0 1 1 1 1 1 1 0 0 0 1 2 2 3 4 6 9 11 11 8 5 2 1 1 2 2
1 2 4 4 4 6 9 11 11 10 10 9 8 5 3 1 1 0 0 0 1 2 2 2 1 0 0 0 0 1 2 1 2 3 5 8 10 10 6 3 1 0 0 0
1 1 2 2 3 4 6 7 7 7 8 7 5 3 2 2 1 1 1 2 2 3 3 2 2 1 0 0 1 2 2 1 0 1 4 6 9 9 7 5 4 2 0 0
2 3 3 2 3 4 4 4 4 4 5 5 3 1 1 1 1 1 2 3 3 3 2 1 1 1 1 1 2 2 1 0 0 1 4 6 7 7 6 6 6 5 2 0
4 4 4 3 3 2 2 2 1 1 2 3 2 1 0 1 2 3 3 3 2 1 1 0 1 1 1 2 3 2 1 0 0 1 4 5 6 7 7 6 6 6 4 2
3 2 2 1 1 1 1 1 0 1 2 2 2 1 1 2 3 3 2 1 1 0 0 0 0 0 0 1 2 3 2 1 0 1 3 4 5 6 6 5 5 5 4 4
1 1 0 0 0 1 1 1 0 2 3 2 2 2 3 3 3 2 1 0 0 0 0 0 0 0 0 0 1 2 3 2 1 1 2 3 4 4 4 4 3 3 4 5
0 0 0 0 1 2 2 1 0 1 1 1 1 3 3 3 2 1 0 0 0 0 0 0 0 0 0 0 0 2 3 2 1 1 2 3 3 3 3 3 3 3 3 4
0 0 0 1 2 2 2 1 0 0 0 0 1 2 2 2 1 0 0 0 0 0 0 0 0 0 0 0 1 2 3 2 1 2 3 4 3 3 3 3 3 3 3 3
0 0 1 2 1 1 1 0 0 0 0 0 0 1 1 1 0 0 0 0 0 0 0 0 1 1 1 1 1 3 3 3 3 3 5 5 4 3 3 3 3 3 3 3
0 0 0 1 0 0 0 0 0 0 0 0 0 0 0 0 0 0 0 0 0 0 0 0 1 2 2 2 3 3 4 4 5 5 5 6 5 4 3 3 3 3 3 3
0 0 0 0 0 0 0 0 0 0 0 0 0 0 0 0 0 0 0 0 0 0 0 0 1 1 1 2 2 2 3 3 3 3 4 6 6 5 4 3 3 2 2 1
0 0 0 0 0 0 0 0 0 0 0 0 0 0 0 0 0 0 0 0 0 0 0 0 0 0 0 1 1 1 1 1 1 1 3 4 4 4 4 2 1 1 1 0
0 0 0 0 0 0 0 0 0 0 0 0 0 0 0 0 0 0 0 0 0 0 0 0 0 0 0 0 0 0 0 0 0 0 1 1 1 1 1 1 0 0 0 0
0 0 0 0 0 0 0 0 0 0 0 0 0 0 0 0 0 0 0 0 0 0 0 0 0 0 0 0 0 0 0 0 0 0 0 0 0 0 0 0 0 0 0 1
0 0 0 0 0 0 0 0 0 0 0 0 0 0 0 0 0 0 0 0 0 0 0 0 0 0 0 0 0 0 0 0 0 0 0 0 0 0 0 0 0 0 1 1

GEFSNGP_con_probscp_210.txt.gz
Probability
1 0 1 2 3 2 0 0 0 1 2 5 9 14 16 16 18 23 24 22 25 29 30 29 28 28 31 34 35 35 34 32 32 31 34 37 36 32 27 22 18 15 12 12
1 0 0 2 3 2 1 0 1 2 4 6 10 14 15 16 18 22 24 24 24 25 26 25 24 24 28 33 35 34 32 28 26 25 27 31 32 30 28 25 21 16 14 13
1 0 0 2 2 2 2 1 1 3 5 8 12 14 16 17 18 22 25 24 23 23 23 21 20 22 26 31 33 32 28 23 19 18 20 22 26 29 30 27 22 19 16 15
0 0 0 1 1 1 2 2 2 5 8 13 15 16 17 18 20 23 25 24 23 24 23 21 21 23 25 26 28 28 23 19 16 15 17 20 23 26 28 25 23 22 20 19
0 0 0 1 2 1 1 2 5 9 14 17 18 18 19 19 21 24 24 23 24 25 23 21 21 23 22 22 23 23 20 17 15 14 16 20 21 21 22 22 22 22 21 20
0 0 0 1 2 2 1 1 6 13 17 19 19 18 18 20 21 22 22 22 24 25 23 21 19 19 19 19 19 19 17 17 14 13 14 17 19 18 19 20 20 20 19 18
0 0 0 0 1 2 1 1 6 11 16 17 18 17 18 20 22 22 21 21 22 22 19 16 15 14 13 13 13 13 14 16 14 13 14 16 17 17 19 21 21 20 19 19
0 0 0 0 0 1 1 2 6 10 12 14 16 18 19 20 22 22 21 19 17 15 12 9 9 9 8 8 8 10 12 13 13 12 14 16 16 17 19 22 22 21 21 22
1 1 1 1 1 1 2 4 8 11 10 10 14 17 17 16 16 17 17 14 10 9 9 6 5 5 5 5 5 7 9 9 9 10 11 12 14 16 19 22 22 21 20 19
3 3 3 3 2 1 2 6 11 12 10 9 10 12 11 9 8 9 10 8 5 6 6 5 3 3 3 2 2 4 5 6 6 6 7 9 11 13 16 19 19 17 15 14
5 5 4 3 2 1 3 7 10 11 9 8 8 7 5 4 3 4 4 3 2 3 4 3 2 1 1 1 1 2 3 4 4 3 4 5 6 7 9 11 11 10 8 8
4 4 3 2 1 1 2 5 7 8 8 8 6 4 3 2 2 1 1 1 0 1 1 2 2 1 0 0 0 1 1 1 1 1 2 3 2 2 3 4 4 3 3 3
1 2 2 1 0 0 2 3 4 6 6 6 4 2 1 1 1 0 0 0 0 0 0 1 1 0 0 0 0 0 0 0 0 0 1 1 1 0 1 2 2 1 0 1
0 1 2 2 1 1 1 2 3 4 4 3 1 1 1 1 0 0 0 0 0 0 0 0 0 0 0 0 0 0 0 0 0 0 0 1 0 0 1 2 3 2 1 0
0 0 2 3 2 1 1 1 1 2 2 1 0 0 0 0 0 0 0 0 0 0 0 0 0 0 0 0 0 0 0 0 0 0 1 1 1 1 1 3 4 3 2 1
0 1 2 2 2 1 1 1 0 0 0 0 0 0 0 0 0 0 0 0 0 0 0 0 0 0 0 0 0 0 0 0 0 0 1 2 3 2 2 3 4 4 3 3
1 1 1 1 1 0 0 0 0 0 0 0 0 0 0 0 0 0 0 0 0 0 0 0 0 0 0 0 0 0 0 0 0 0 1 2 2 2 1 1 3 4 3 3
0 0 0 0 0 0 0 0 0 0 0 0 0 0 0 0 0 0 0 0 0 0 0 0 0 0 0 0 0 0 0 0 0 0 0 1 1 1 0 0 2 4 4 3
0 0 0 0 0 0 0 0 0 0 0 0 0 0 0 0 0 0 0 0 0 0 0 0 0 0 0 0 0 0 0 0 0 0 0 0 0 0 0 0 2 3 3 3
0 0 0 0 0 0 0 0 0 0 0 0 0 0 0 0 0 0 0 0 0 0 0 0 0 0 0 0 0 0 0 0 0 0 0 0 0 0 0 0 1 3 3 3
0 0 0 0 0 0 0 0 0 0 0 0 0 0 0 0 0 0 0 0 0 0 0 0 0 0 0 0 0 0 0 0 0 0 0 0 0 0 0 0 1 3 3 3
0 0 0 0 0 0 0 0 0 0 0 0 0 0 0 0 0 0 0 0 0 0 0 0 0 0 0 0 0 0 0 0 0 0 0 0 0 0 0 1 2 3 3 3
0 0 0 0 0 0 0 0 0 0 0 0 0 0 0 0 0 0 0 0 0 0 0 0 0 0 0 0 0 0 0 0 0 0 0 0 0 0 0 1 2 3 3 3
0 0 0 0 0 0 0 0 0 0 0 0 0 0 0 0 0 0 0 0 0 0 0 0 0 0 0 0 0 0 0 0 0 0 0 0 0 0 0 1 2 3 3 3
0 0 0 0 0 0 0 0 0 0 0 0 0 0 0 0 0 0 0 0 0 0 0 0 0 0 0 0 0 0 0 0 0 0 0 0 0 0 1 1 3 3 3 3
0 0 0 0 0 0 0 0 0 0 0 0 0 0 0 0 0 0 0 0 0 0 0 0 0 0 0 0 0 0 0 0 0 0 0 0 0 0 1 2 2 2 2 2
0 0 0 0 0 0 0 0 0 0 0 0 0 0 0 0 0 0 0 0 0 0 0 0 0 0 0 0 0 0 0 0 0 0 0 0 0 0 1 1 1 1 1 1

GEFSNGP_con_probscp_216.txt.gz
Probability
3 2 1 0 0 0 1 2 2 2 7 15 20 20 18 18 20 23 27 32 37 41 46 47 48 50 50 48 49 51 54 56 55 56 59 60 56 51 46 41 40 43 44 43
1 1 1 0 0 0 1 2 3 5 12 21 24 21 18 17 19 22 26 32 36 38 41 44 46 47 47 48 50 50 51 52 53 54 56 55 53 52 50 46 43 45 45 44
1 1 0 0 1 2 3 4 7 12 20 27 27 22 17 17 19 21 25 31 35 36 37 40 43 45 45 48 49 48 46 46 47 50 51 48 46 47 48 46 44 43 43 42
1 1 1 1 3 5 7 9 13 19 25 27 25 20 18 21 23 23 25 30 34 37 36 37 41 43 43 45 46 44 43 44 44 44 44 42 40 41 41 40 39 38 38 41
0 1 1 2 5 8 10 13 18 22 26 26 22 18 20 25 27 26 26 28 33 37 36 37 41 43 41 42 42 41 41 42 40 37 36 35 34 35 37 37 35 33 36 38
0 1 2 5 7 10 12 17 23 27 29 27 23 20 22 27 27 25 26 29 32 35 35 35 39 41 40 40 40 38 37 37 33 29 28 28 29 30 32 34 32 31 33 35
1 1 4 8 12 14 17 22 26 30 32 31 27 26 26 28 26 24 27 31 34 35 34 33 35 37 36 36 36 35 33 31 28 24 22 22 25 26 26 28 29 29 30 30
2 4 7 11 14 17 20 23 25 27 29 31 29 27 27 28 27 26 28 31 32 32 33 34 34 32 31 32 32 32 31 28 24 19 16 16 18 19 20 23 26 27 26 24
5 6 8 9 10 13 17 21 23 24 27 28 26 24 24 26 27 28 28 28 27 28 32 34 33 29 27 27 28 27 25 22 19 17 15 14 15 16 17 20 21 22 22 21
6 6 6 5 5 7 11 16 20 23 25 24 23 23 23 24 26 26 25 25 24 26 29 30 28 24 21 22 23 21 19 18 18 17 16 15 15 15 16 17 17 17 20 21
5 5 4 4 4 6 9 12 16 18 19 18 19 22 22 23 24 22 21 22 22 23 24 23 20 16 14 15 16 17 17 17 16 15 15 15 14 12 11 11 10 12 16 18
6 5 4 5 6 8 9 9 10 12 12 13 15 18 19 19 19 17 16 17 18 19 17 15 12 11 10 10 12 14 16 15 13 12 13 12 11 7 4 3 3 5 8 10
6 5 5 5 6 7 8 7 6 7 9 11 12 13 13 13 12 12 12 13 14 14 12 10 10 10 9 9 10 12 13 11 10 9 10 9 8 5 1 0 0 1 2 2
4 4 4 4 4 4 4 4 4 4 5 6 7 7 6 6 7 8 8 9 8 8 9 9 9 9 9 10 10 9 8 7 7 7 6 6 5 2 0 0 1 1 0 0
3 3 3 3 3 3 3 3 3 2 2 3 3 3 2 3 5 6 6 5 5 6 8 8 7 6 7 8 7 5 4 3 4 4 3 2 1 0 0 1 2 1 0 0
2 2 3 3 3 3 3 3 2 2 3 4 4 2 2 3 4 4 4 3 4 5 6 7 6 4 4 4 3 1 1 1 1 1 1 0 0 0 0 1 2 1 0 0
1 1 1 2 2 2 3 2 1 2 3 3 3 3 3 3 3 2 2 3 3 3 4 6 6 4 2 2 2 1 0 0 0 0 0 0 0 0 0 1 1 0 0 0
1 1 1 1 1 1 1 1 1 1 1 1 1 2 2 2 1 1 1 1 2 2 3 4 4 3 2 2 2 2 1 0 0 0 0 0 1 0 0 0 0 0 0 0
2 2 1 0 0 0 0 0 0 0 0 0 0 1 1 1 0 0 0 0 1 1 1 1 1 1 1 1 1 2 1 0 0 0 0 0 0 0 0 0 0 0 0 0
1 1 1 0 0 0 0 1 1 1 1 0 0 0 0 0 1 1 1 0 0 0 0 0 0 1 0 0 0 1 1 0 0 0 0 0 0 0 0 0 0 0 0 0
0 0 0 0 0 0 0 1 2 2 2 1 0 0 1 1 2 2 2 1 0 0 0 0 0 0 0 0 0 0 0 0 0 0 0 0 0 0 0 0 0 0 0 0
0 0 0 0 0 0 0 1 2 2 2 1 0 0 1 2 2 2 1 1 0 0 0 0 0 0 0 0 0 0 0 0 0 0 0 0 0 0 0 0 0 0 0 0
0 0 0 0 0 0 0 0 1 1 1 0 0 0 1 1 1 1 0 0 0 0 0 0 0 0 0 0 0 0 0 0 0 0 0 0 0 0 0 0 0 0 0 0
1 1 1 0 0 0 0 0 0 0 0 0 0 0 0 0 0 0 0 0 0 0 0 0 0 0 0 0 0 0 0 0 0 0 0 0 0 0 0 0 0 0 0 0
2 2 2 1 0 0 0 0 0 0 0 0 0 0 0 0 0 0 0 0 0 0 0 0 0 0 0 0 0 0 0 0 0 0 0 0 0 0 0 0 0 0 0 0
2 2 2 1 0 0 0 0 0 0 0 0 0 0 0 0 0 0 0 0 0 0 0 0 0 0 0 0 0 0 0 0 0 0 0 0 0 0 0 0 0 0 0 0
1 1 1 0 0 0 0 0 0 0 0 0 0 0 0 0 0 0 0 0 0 0 0 0 0 0 0 0 0 0 0 0 0 0 0 0 0 0 0 0 0 0 0 0

GEFSNGP_con_probscp_222.txt.gz
Probability
0 0 0 0 0 0 0 1 2 3 9 20 29 33 36 40 41 40 41 45 49 52 57 61 65 67 70 74 75 73 69 67 65 63 65 66 64 63 60 56 52 49 45 43
0 0 0 0 0 0 0 0 1 4 12 24 32 35 37 41 43 43 43 44 47 53 59 63 64 64 66 69 72 73 70 66 63 63 64 64 63 61 58 55 52 49 47 46
0 0 0 0 1 1 2 3 4 10 20 30 36 39 41 42 44 44 43 42 42 50 57 60 61 62 62 63 65 67 68 64 60 60 60 60 58 57 57 55 53 51 49 48
0 0 0 1 2 4 6 9 12 18 27 34 37 40 41 41 41 42 42 39 38 41 48 53 57 57 57 58 59 60 59 57 54 53 53 53 54 54 54 53 53 52 50 49
0 0 0 2 4 6 10 15 19 25 33 36 35 35 36 38 39 41 40 38 37 37 43 50 55 55 53 54 55 54 52 50 48 46 46 47 50 52 51 49 49 49 47 47
0 0 1 3 5 6 11 18 25 33 39 39 36 35 35 38 39 39 39 39 38 39 45 51 53 53 53 52 52 51 50 49 48 45 43 44 47 49 47 45 44 42 41 42
0 1 3 7 9 11 16 23 30 35 40 42 41 40 39 39 38 37 37 38 38 40 45 47 48 48 48 48 47 47 48 49 49 46 43 43 45 45 43 41 39 36 35 36
5 7 10 14 18 22 27 30 31 32 36 39 39 37 37 38 37 36 35 36 36 39 41 42 42 42 41 42 43 43 44 46 46 44 42 41 41 40 38 36 34 32 32 31
12 14 17 19 23 29 31 30 28 28 30 31 29 29 32 36 37 35 34 34 36 37 38 38 39 38 38 38 40 41 42 43 42 40 38 36 32 30 30 30 28 28 27 26
13 14 15 17 21 25 23 21 21 22 23 23 23 24 29 35 38 36 33 32 34 36 37 37 37 38 39 39 39 40 39 38 34 32 30 28 23 21 22 22 22 22 22 20
9 10 11 14 17 18 16 15 16 17 18 20 22 24 28 33 37 35 32 30 33 36 36 35 36 37 37 37 36 35 32 28 23 21 21 21 18 16 15 14 13 14 14 15
9 9 11 13 14 14 14 14 14 15 17 20 22 24 28 30 32 31 30 31 34 34 34 34 35 34 33 33 30 27 24 20 15 13 15 17 16 14 9 6 6 5 6 7
9 10 11 11 10 11 12 13 13 15 17 19 21 22 24 25 23 23 27 31 33 31 31 33 34 33 31 30 27 23 19 14 12 11 12 13 14 13 9 5 3 2 1 1
9 10 9 8 8 8 8 8 10 11 13 14 14 15 17 17 16 17 22 26 28 27 27 29 30 28 27 27 26 22 15 11 10 10 9 11 11 11 10 7 4 2 1 0
8 8 7 7 7 6 5 5 6 7 8 9 10 11 12 13 14 15 17 21 22 22 22 23 24 22 22 22 22 20 14 11 9 8 8 8 8 8 8 7 6 4 2 1
5 5 5 6 7 5 4 4 4 5 7 8 8 8 9 11 13 14 16 17 17 16 17 18 19 19 19 19 18 15 11 8 7 6 6 6 6 6 6 5 4 4 3 2
4 4 4 5 6 6 5 5 5 6 7 8 8 8 7 7 10 12 14 15 14 12 12 13 14 16 17 17 13 9 6 5 4 4 5 6 6 5 4 4 3 2 1 1
4 4 4 4 4 5 5 5 6 6 7 7 8 7 5 5 8 11 14 15 13 11 10 10 10 12 13 13 10 7 4 3 2 3 4 5 5 4 4 5 3 2 0 0
2 3 3 3 3 3 3 4 4 4 4 5 6 6 6 6 8 12 14 15 13 10 10 9 8 9 10 9 8 7 3 1 1 1 2 3 4 4 4 4 3 2 0 0
1 1 1 1 1 1 2 2 2 2 2 3 3 4 5 5 8 12 14 14 12 10 10 9 8 8 8 7 5 4 2 0 0 0 1 2 3 3 2 2 2 1 0 0
0 0 0 0 1 2 3 3 2 2 2 2 3 3 4 4 6 10 11 11 11 11 9 7 7 7 6 4 2 1 0 0 0 0 1 2 3 2 1 0 0 0 0 0
1 1 0 1 2 3 3 3 2 1 1 2 2 3 3 4 5 7 8 9 10 8 6 5 4 4 3 2 1 1 0 0 0 0 0 1 2 1 0 0 0 0 0 0
1 1 0 1 2 3 2 1 0 0 0 1 1 2 2 3 4 5 6 7 6 4 3 3 2 1 1 2 2 2 1 1 0 0 0 0 0 0 0 0 0 0 0 0
2 2 1 1 1 1 1 0 0 0 0 1 1 1 1 2 2 3 4 3 2 1 1 1 0 0 1 2 3 3 2 1 0 0 0 0 0 0 0 0 0 0 0 0
2 2 1 1 0 0 0 0 0 0 0 0 0 0 1 1 1 2 3 1 0 0 0 0 0 0 0 1 2 2 1 0 0 0 0 0 0 0 0 0 0 0 0 0
2 1 0 0 0 0 0 0 0 0 0 0 0 0 0 0 0 1 2 1 0 0 0 0 0 0 0 1 1 1 0 0 0 0 0 0 0 0 0 0 0 0 0 0
1 0 0 0 0 0 0 0 0 0 0 0 0 0 0 0 0 0 1 0 0 0 0 0 0 0 0 0 1 0 0 0 0 0 0 0 0 0 0 0 0 0 0 0

GEFSNGP_con_probscp_228.txt.gz
Probability
0 0 0 0 0 0 1 2 3 5 9 14 17 20 19 21 25 27 26 25 25 28 33 36 36 36 36 38 42 44 44 42 40 38 37 38 38 37 35 32 29 26 26 26
0 0 0 0 0 1 2 4 6 8 12 16 21 23 23 25 28 29 28 28 28 32 35 37 37 36 36 37 39 41 41 40 38 36 35 36 35 34 32 30 29 28 28 27
0 0 0 0 2 5 6 7 9 11 15 19 24 25 25 25 28 30 30 29 29 31 32 33 36 37 36 36 37 37 36 35 33 32 32 33 31 29 29 28 28 28 27 26
0 0 1 2 5 8 8 9 10 13 17 21 25 26 24 24 26 27 27 26 27 27 27 30 34 36 36 35 35 34 33 32 30 29 30 30 29 26 25 25 25 25 24 24
0 1 2 4 7 8 9 10 12 15 17 20 23 25 25 27 27 25 23 23 25 26 26 29 33 34 33 32 31 31 30 30 30 29 28 28 27 25 22 22 22 22 23 23
1 1 3 6 9 8 8 11 14 16 18 19 21 22 24 27 28 25 22 22 24 25 25 26 29 29 29 29 29 28 28 29 31 30 29 26 25 23 21 20 19 19 20 20
2 3 4 7 11 10 8 9 12 15 16 17 17 17 20 23 24 24 24 24 24 23 22 22 24 24 25 27 28 28 27 27 28 28 27 24 21 20 20 20 17 13 14 16
2 2 3 7 10 10 9 8 10 12 13 13 12 12 16 19 19 20 22 24 24 22 20 20 22 24 25 26 28 28 26 24 23 23 22 20 17 16 16 16 13 9 9 10
2 3 4 6 7 8 9 10 10 11 11 9 7 8 13 16 16 16 17 20 22 20 19 21 23 24 24 25 27 28 25 21 19 18 17 15 14 14 13 12 9 7 6 6
5 6 7 7 7 7 9 10 11 11 10 7 5 5 9 13 14 14 14 16 18 18 19 21 23 24 24 24 24 25 23 20 17 16 14 13 12 11 11 9 7 6 5 6
7 8 9 8 6 5 7 8 9 8 6 5 4 4 6 9 12 12 13 14 15 16 18 20 23 24 23 21 21 21 20 16 14 12 11 11 9 8 7 6 5 5 5 5
7 7 7 6 5 4 4 5 6 4 2 2 2 3 4 8 10 11 11 12 14 15 17 20 22 24 23 19 17 17 15 12 9 7 7 6 5 4 4 3 2 2 3 3
6 5 5 4 4 3 3 3 3 3 1 1 1 2 4 7 9 8 8 10 12 13 15 18 20 21 20 17 15 14 12 9 6 4 3 3 2 2 3 2 0 0 1 1
3 3 3 3 3 3 3 3 3 3 1 1 1 2 4 7 7 5 4 6 8 9 10 12 14 15 15 14 12 11 10 7 4 2 1 1 0 1 2 1 0 0 0 0
1 2 3 4 3 2 2 2 2 2 1 1 1 2 5 6 5 3 1 2 3 4 5 6 7 9 10 10 9 7 6 5 3 1 0 0 0 0 1 1 0 0 0 0
1 1 3 4 3 1 1 1 1 1 1 0 0 3 5 6 4 2 1 1 1 1 1 3 4 6 7 7 6 5 4 2 1 0 0 0 0 0 0 0 0 0 0 0
0 1 1 1 1 0 0 0 0 0 0 0 0 1 3 3 3 2 2 2 1 1 1 3 4 6 6 6 6 4 2 1 0 0 0 0 0 0 0 0 0 0 0 0
0 0 0 0 0 0 0 0 0 0 0 0 0 0 1 1 1 1 1 1 2 3 3 2 3 5 6 6 5 4 2 0 0 0 0 0 0 0 0 0 0 0 0 0
0 0 0 0 0 0 0 0 0 0 0 0 0 0 0 0 0 0 0 1 3 3 2 1 2 4 5 5 5 3 2 1 0 0 0 0 0 0 0 0 0 0 0 0
0 0 0 0 0 0 0 0 0 0 0 0 0 0 0 0 0 0 0 0 1 1 1 0 1 2 4 4 4 3 2 1 0 0 0 0 0 0 0 0 0 0 0 0
0 0 0 0 0 0 0 0 0 0 0 0 0 0 0 0 0 0 0 0 0 0 0 0 0 1 3 3 3 3 2 1 0 0 0 0 0 0 0 0 0 0 0 0
0 0 0 0 0 0 0 0 0 0 0 0 0 0 0 0 0 0 0 0 0 0 0 0 0 1 2 3 3 3 2 1 0 0 0 0 0 0 0 0 0 0 0 0
0 0 0 0 0 0 0 0 0 0 0 0 0 0 0 0 0 0 0 0 0 0 0 0 0 1 2 3 3 2 1 0 0 0 0 0 0 0 0 0 0 0 0 0
0 0 0 0 0 0 0 0 0 0 0 0 0 0 0 0 0 0 0 0 0 0 0 0 0 0 1 2 1 1 0 0 0 0 0 0 0 0 0 0 0 0 0 0
0 0 0 0 0 0 0 0 0 0 0 0 0 0 0 0 0 0 0 0 0 0 0 0 0 0 0 0 0 0 0 0 0 0 0 0 0 0 0 0 0 0 0 0
0 0 0 0 0 0 0 0 0 0 0 0 0 0 0 0 0 0 0 0 0 0 0 0 0 0 0 0 0 0 0 0 0 0 0 0 0 0 0 0 0 0 0 0
0 0 0 0 0 0 0 0 0 0 0 0 0 0 0 0 0 0 0 0 0 0 0 0 0 0 0 0 0 0 0 0 0 0 0 0 0 0 0 0 0 0 0 0

GEFSNGP_con_probscp_234.txt.gz
Probability
0 0 0 0 0 0 0 0 0 2 4 7 10 13 14 15 14 12 12 12 12 10 10 11 14 19 24 25 26 28 30 31 32 33 32 30 26 24 25 26 24 22 19 18
0 0 0 0 0 0 0 0 1 3 6 9 12 14 16 17 15 14 14 13 12 11 9 12 18 23 25 25 25 26 27 27 29 31 30 29 27 26 26 26 25 23 21 20
0 0 0 0 1 1 2 2 3 4 7 10 12 15 17 18 17 17 16 16 15 13 11 15 23 27 27 24 23 24 24 24 25 26 27 26 26 28 27 25 23 22 22 22
0 0 0 1 2 3 5 6 6 7 10 11 13 15 17 17 18 18 18 18 18 16 15 17 22 25 25 24 22 22 21 20 20 22 23 23 24 25 25 23 21 20 19 20
0 0 1 2 3 5 6 6 7 9 12 12 13 13 12 12 15 17 19 19 19 18 17 17 18 19 21 22 22 21 20 19 18 20 21 22 23 22 22 22 20 17 16 16
0 0 1 2 3 3 4 4 5 8 10 10 10 8 6 6 10 15 17 19 18 17 16 17 16 15 16 18 19 19 20 20 20 20 21 22 22 21 21 20 16 15 14 13
0 0 0 1 2 3 3 3 4 5 6 6 5 3 3 5 8 12 15 16 17 17 17 16 15 14 14 14 15 16 18 20 21 21 21 21 21 21 20 17 14 14 12 10
0 0 0 1 3 4 4 4 4 4 3 4 4 4 5 6 9 12 14 14 15 17 17 15 14 14 13 12 13 14 15 17 19 20 20 20 20 19 18 16 15 15 13 10
1 1 1 2 3 4 5 6 6 4 3 4 5 5 6 8 10 12 13 14 14 15 16 15 13 14 14 13 13 13 13 13 15 17 18 19 19 19 17 16 16 16 14 11
2 2 3 3 3 3 5 7 7 4 3 3 4 5 5 7 8 10 11 13 14 15 16 15 14 14 15 16 15 13 12 10 10 13 16 17 17 16 16 15 15 15 13 11
3 3 3 3 2 2 4 6 5 3 2 3 3 3 3 4 5 6 8 10 13 14 14 15 15 15 16 17 16 14 12 10 8 10 13 13 12 11 10 10 10 10 10 8
3 2 2 1 1 1 1 2 2 1 1 1 2 2 1 1 2 3 4 6 9 10 11 14 14 14 15 16 15 14 12 10 8 8 9 9 7 5 4 4 4 4 4 4
2 2 1 0 0 0 0 0 0 0 0 0 1 1 0 0 1 2 3 5 7 7 8 10 11 9 10 12 12 12 11 9 6 5 5 4 4 3 1 0 1 1 1 1
1 1 0 0 0 0 0 0 0 0 0 0 0 0 0 0 0 1 2 4 6 5 5 5 5 4 5 7 8 9 8 6 4 3 2 2 2 2 1 0 0 0 0 0
0 0 0 0 0 0 0 0 0 0 0 0 0 0 0 0 0 0 1 3 4 3 2 2 1 1 2 4 6 6 6 4 2 1 1 1 1 1 0 0 0 0 0 0
0 0 0 0 0 0 0 0 0 0 0 0 0 0 0 0 0 0 1 2 3 2 1 1 0 0 1 3 4 4 4 3 2 1 1 1 0 0 0 0 0 0 0 0
0 0 0 0 0 0 0 0 0 0 0 0 0 0 0 0 0 0 1 2 3 2 0 0 0 0 2 3 3 3 3 3 1 0 0 0 0 0 0 0 0 0 0 0
0 0 0 0 0 0 0 0 0 0 0 0 0 0 0 0 0 0 0 1 2 1 0 0 0 0 1 2 2 2 2 2 1 0 0 0 0 0 0 0 0 0 0 0
0 0 0 0 0 0 0 0 0 0 0 0 0 0 0 0 0 0 0 0 1 1 0 0 0 0 0 1 1 1 1 1 0 0 0 0 0 0 0 0 0 0 0 0
0 0 0 0 0 0 0 0 0 0 0 0 0 0 0 0 0 0 0 0 0 0 0 0 0 0 0 0 0 0 0 0 1 1 1 0 0 0 0 0 0 0 0 0
0 0 0 0 0 0 0 0 0 0 0 0 0 0 0 0 0 0 0 0 0 0 0 0 0 0 0 0 0 0 0 0 1 2 2 1 0 0 0 0 0 0 0 0
0 0 0 0 0 0 0 0 0 0 0 0 0 0 0 0 0 0 0 0 0 0 0 0 0 0 0 0 0 0 0 0 1 3 3 1 0 0 0 0 0 0 0 0
0 0 0 0 0 0 0 0 0 0 0 0 0 0 0 0 0 0 0 0 0 0 0 0 0 0 0 0 0 0 0 0 1 2 3 2 1 0 0 0 0 0 0 0
0 0 0 0 0 0 0 0 0 0 0 0 0 0 0 0 0 0 0 0 0 0 0 0 0 0 0 0 0 0 0 0 1 2 3 2 1 0 0 0 0 0 0 0
0 0 0 0 0 0 0 0 0 0 0 0 0 0 0 0 0 0 0 0 0 0 0 0 0 0 0 0 0 0 0 0 1 3 3 2 1 0 0 0 0 0 0 0
0 0 0 0 0 0 0 0 0 0 0 0 0 0 0 0 0 0 0 0 0 0 0 0 0 0 0 0 0 0 0 1 2 3 2 1 0 0 0 0 0 0 0 0
0 0 0 0 0 0 0 0 0 0 0 0 0 0 0 0 0 0 0 0 0 0 0 0 0 0 0 0 0 0 0 1 2 3 1 0 0 0 0 0 0 0 0 0

GEFSNGP_con_probscp_240.txt.gz
Probability
0 0 0 0 0 0 0 0 2 3 3 3 7 13 18 24 26 26 28 34 39 38 36 35 36 39 42 44 45 45 46 47 43 39 37 36 37 39 40 39 38 39 38 35
0 0 0 0 0 0 1 1 2 2 2 3 8 14 20 24 25 26 27 31 34 35 33 33 35 38 41 43 45 46 48 48 47 43 40 38 36 37 38 37 37 38 38 36
0 0 0 0 0 0 1 2 2 1 1 3 9 16 21 22 24 27 28 29 29 29 28 29 33 38 42 45 47 48 49 49 48 45 41 38 36 35 36 36 36 36 36 35
0 0 0 0 0 0 1 1 1 1 3 5 10 16 18 20 24 27 30 29 28 27 27 26 29 35 43 48 49 48 47 47 46 43 39 37 35 34 35 35 34 35 35 34
0 0 0 0 0 0 0 1 2 4 6 9 13 15 16 19 23 25 27 28 27 26 26 26 26 31 38 44 46 46 44 43 42 39 36 34 34 33 33 32 32 32 33 34
0 0 0 0 0 0 0 1 4 6 9 12 14 16 19 22 24 23 23 24 24 25 27 29 29 30 33 37 39 39 37 35 34 33 32 31 31 31 31 30 29 28 28 29
0 0 0 0 0 1 2 5 7 8 10 12 14 18 22 26 27 24 23 23 23 24 29 32 32 31 31 33 34 33 31 28 28 28 29 29 29 30 30 29 28 26 24 25
0 0 1 1 1 3 7 11 12 11 10 10 13 19 24 26 25 24 24 23 22 23 25 28 29 29 30 30 29 30 29 27 26 27 27 28 29 28 27 27 26 24 23 22
1 1 3 4 4 6 9 13 15 15 13 12 14 18 21 21 20 20 20 20 19 20 20 21 24 28 29 27 27 29 29 28 27 26 27 28 28 26 24 22 21 19 18 17
2 3 5 5 6 7 8 11 15 16 16 16 16 16 15 15 15 16 16 15 16 18 20 21 24 27 27 25 26 28 28 26 25 24 25 25 24 22 20 18 18 16 15 14
4 5 6 6 6 6 7 9 12 14 15 16 15 13 12 12 13 14 13 12 14 18 21 24 25 26 23 21 23 25 26 24 22 21 21 19 17 15 14 13 14 14 13 13
7 7 6 6 6 6 7 8 10 12 13 13 13 11 10 11 12 13 12 11 12 15 19 22 23 22 20 19 20 23 24 22 19 17 15 13 12 10 8 7 7 8 8 8
8 7 7 7 7 6 7 7 8 11 12 12 11 10 9 10 11 12 12 11 12 14 16 17 19 18 18 18 20 22 22 20 16 12 11 10 10 9 7 5 4 3 3 2
7 6 6 6 6 5 5 6 7 8 10 9 7 7 8 9 9 10 10 11 13 15 15 14 15 16 16 16 17 18 19 17 13 9 8 9 10 10 9 8 7 5 2 0
5 4 3 3 3 2 3 4 4 4 4 3 3 4 6 7 7 8 8 9 12 13 13 11 10 11 13 14 14 16 16 13 9 7 7 9 9 9 9 8 8 6 3 1
3 2 1 1 1 1 1 1 1 1 1 0 1 2 4 4 5 6 6 6 7 8 8 7 5 5 8 10 11 12 11 7 5 5 6 7 7 7 6 6 6 4 2 0
3 1 0 0 0 0 0 0 0 0 0 0 0 1 3 3 4 5 5 5 5 4 5 5 4 3 3 4 5 6 5 3 3 3 4 5 5 5 5 5 4 2 1 0
2 1 0 0 0 0 0 0 0 0 0 0 0 1 3 4 4 5 5 5 5 4 3 3 3 2 2 2 1 1 2 2 2 2 3 4 5 5 5 4 3 1 0 0
1 0 0 0 0 0 0 0 0 0 0 0 0 1 3 4 4 3 3 3 4 4 3 2 2 2 3 2 2 2 2 2 2 2 2 3 4 4 4 3 2 0 0 0
0 0 0 0 0 0 0 0 0 0 0 0 0 0 2 3 2 1 1 2 3 3 3 2 2 2 2 2 2 2 2 2 2 2 1 1 1 2 3 3 2 1 0 0
0 0 0 0 0 0 0 0 0 0 0 0 0 0 1 1 0 0 0 1 2 2 1 1 1 2 1 1 0 1 1 1 1 1 0 0 0 1 2 3 3 2 1 0
0 0 0 0 0 0 0 0 0 0 0 0 0 0 0 0 0 0 0 1 1 1 0 0 0 0 0 0 0 0 0 0 0 0 0 0 0 0 1 2 3 3 2 1
0 0 0 0 0 0 0 0 0 0 0 0 0 0 0 0 0 0 0 0 0 0 0 0 0 0 0 0 0 0 0 0 0 0 0 0 0 0 0 1 3 3 2 1
0 0 0 0 0 0 0 0 0 0 1 1 1 0 0 0 0 0 0 0 0 0 0 0 0 0 0 0 0 0 0 0 0 0 0 0 0 0 0 1 2 2 2 2
0 0 0 0 0 0 0 0 0 0 1 1 1 0 0 0 0 0 0 0 0 0 0 0 0 0 0 0 0 0 0 0 0 0 0 0 0 0 0 0 1 1 2 3
0 0 0 0 0 0 0 0 0 1 1 0 0 0 0 0 0 0 0 0 0 0 0 0 0 0 0 0 0 0 0 0 0 0 0 0 0 0 0 0 0 1 2 3
0 0 0 0 0 0 0 0 0 1 0 0 0 0 0 0 0 0 0 0 0 0 0 1 1 1 0 0 0 0 0 0 0 0 0 0 0 0 0 0 1 2 2 3

GEFSNGP_con_probscp_246.txt.gz
Probability
0 0 0 0 0 0 0 1 3 5 8 13 17 21 25 30 35 38 41 44 47 50 53 56 58 61 60 55 53 55 57 58 60 60 56 52 50 50 50 51 50 50 50 51
0 0 0 0 0 0 0 1 3 5 7 12 16 21 26 32 36 39 40 41 43 46 50 54 57 58 57 55 54 57 59 60 60 60 56 52 50 50 51 50 49 48 48 48
0 0 0 0 0 1 1 2 4 7 9 12 16 20 27 34 37 38 37 37 39 43 46 50 53 52 50 50 51 54 57 60 60 58 55 52 52 52 52 50 47 44 42 41
0 0 0 0 0 1 2 2 5 9 11 13 15 18 25 32 36 35 33 34 39 42 43 44 46 46 44 42 43 47 52 55 57 55 53 54 54 53 52 49 46 41 37 36
0 0 0 0 0 1 2 3 6 9 13 14 14 16 22 29 34 33 32 34 38 39 38 39 42 44 41 38 37 42 47 50 51 50 49 52 52 50 49 48 45 39 36 35
0 0 0 1 1 1 2 4 7 11 16 18 17 17 22 29 34 34 34 34 34 33 34 38 43 46 44 40 38 40 44 47 47 46 45 46 46 44 43 44 43 39 36 36
1 1 1 2 2 3 6 8 11 16 21 24 25 25 28 32 34 34 33 31 29 29 32 38 43 47 47 44 41 41 44 46 47 46 43 40 40 40 39 39 40 39 37 34
2 3 4 6 7 9 13 15 16 17 21 26 29 30 31 31 31 31 31 29 28 29 33 39 44 47 48 46 43 43 44 44 44 45 43 40 39 38 38 38 38 37 34 30
3 5 7 9 10 12 15 17 16 16 18 23 26 27 28 29 28 29 29 28 28 30 34 39 44 47 48 47 46 44 43 42 42 43 43 42 40 37 37 38 37 35 31 27
4 5 5 6 8 10 12 13 13 14 16 19 22 24 26 28 28 29 29 28 29 32 34 38 41 44 46 47 46 45 43 42 42 42 41 42 41 36 33 34 34 33 31 28
4 4 4 4 6 8 10 10 10 12 15 18 20 23 25 26 27 29 30 29 31 33 35 36 38 40 40 43 44 44 45 43 41 39 38 39 37 31 25 24 25 25 25 24
5 5 6 5 5 7 8 7 7 9 13 16 18 20 22 23 24 25 26 27 29 31 33 35 37 37 38 40 42 43 44 42 36 33 35 37 34 27 18 13 11 11 12 13
7 7 6 4 4 5 6 5 5 7 11 14 15 16 17 18 20 21 23 24 26 27 29 32 35 36 38 41 42 42 41 36 31 30 31 31 30 27 18 10 5 3 3 4
7 6 3 3 4 5 4 4 5 7 9 12 13 14 14 15 17 20 23 24 24 25 27 30 32 34 36 39 40 39 36 31 26 26 27 25 23 21 17 11 7 5 2 1
5 4 2 3 5 5 4 5 7 8 8 9 11 12 12 13 15 19 22 23 24 23 24 27 29 30 31 32 33 33 30 25 22 22 22 21 18 13 10 8 7 7 3 1
4 3 2 3 5 5 5 6 6 7 7 7 8 10 11 13 17 20 21 22 22 21 20 23 25 26 26 28 28 27 23 19 17 17 17 16 13 9 6 6 6 5 3 1
3 3 3 4 5 4 5 5 5 6 5 5 7 9 12 15 18 20 21 20 20 19 18 19 20 20 22 24 24 21 17 12 10 10 9 8 6 5 4 5 5 3 2 2
3 3 4 5 6 5 4 4 5 6 6 7 10 13 14 16 18 19 19 19 18 17 16 16 15 15 16 17 16 14 10 6 4 3 2 2 1 1 3 4 4 3 2 2
4 4 5 6 6 5 5 5 5 6 7 11 14 16 16 17 17 17 17 16 15 14 14 12 10 10 10 9 8 6 4 2 1 0 0 0 0 1 2 3 3 3 2 2
5 6 6 7 6 5 6 5 5 5 8 11 12 14 15 16 16 15 14 13 11 10 10 8 6 6 6 5 3 1 0 0 0 0 0 0 0 1 2 3 3 3 3 2
5 5 6 7 6 4 4 4 4 5 6 7 8 10 12 14 14 12 10 9 8 6 5 4 4 4 4 3 1 0 0 0 0 0 0 0 0 0 1 1 2 3 3 3
4 4 4 5 5 3 2 2 3 4 4 3 3 5 9 11 9 7 7 6 5 3 1 2 2 2 2 1 0 0 0 0 0 0 0 0 0 0 0 0 1 2 3 3
3 3 3 4 4 4 2 1 1 2 2 1 0 2 6 7 4 2 3 3 2 1 0 1 1 1 1 0 0 0 0 0 0 0 0 0 1 1 0 0 0 1 1 2
3 3 3 3 4 5 3 1 1 1 1 0 0 2 3 2 1 0 1 1 1 0 0 0 0 0 0 0 1 0 0 0 0 0 0 0 1 2 1 0 0 0 0 1
3 3 3 3 3 3 2 1 1 1 1 0 0 1 1 0 0 2 3 3 1 0 1 1 1 0 0 0 0 0 0 0 0 0 0 1 2 3 2 1 0 0 0 0
3 3 2 1 1 1 0 0 0 1 0 0 0 0 0 0 0 2 3 2 1 1 1 2 2 1 0 0 0 0 0 0 0 0 0 1 2 3 2 1 0 0 0 0
3 3 1 0 0 0 0 0 0 1 0 0 0 0 0 0 0 1 1 1 1 1 1 3 2 1 0 0 0 0 0 0 0 0 0 1 3 3 1 0 0 0 0 0

GEFSNGP_con_probscp_252.txt.gz
Probability
0 0 0 0 0 0 0 1 2 1 1 3 7 11 16 24 28 28 28 29 28 24 19 16 18 21 24 27 30 31 32 31 30 29 29 27 26 27 29 28 27 27 26 24
0 0 0 0 0 0 1 2 3 3 3 5 9 14 19 25 29 29 29 30 29 26 22 19 18 20 23 26 28 29 30 30 28 27 26 24 22 22 25 26 27 29 30 29
0 0 0 0 0 0 1 3 5 5 6 10 14 18 23 28 30 29 28 29 29 28 25 21 18 20 21 23 24 26 28 28 27 25 22 20 19 19 20 23 26 30 32 32
0 0 0 0 0 1 3 5 6 7 9 15 20 23 25 27 27 26 26 28 28 27 24 20 17 17 19 20 22 23 25 27 27 24 21 20 20 20 19 21 24 27 28 28
0 0 0 0 0 2 4 6 9 11 15 21 24 25 24 21 20 22 24 27 27 24 19 16 14 15 17 18 19 20 23 24 23 21 20 21 20 20 20 21 24 23 22 21
0 0 0 0 0 1 3 7 12 17 21 23 24 22 19 16 16 19 21 24 24 21 17 14 14 14 15 15 15 18 20 21 19 17 17 18 19 19 20 21 21 20 17 16
0 0 0 0 0 1 2 6 10 16 19 20 18 16 14 14 15 17 18 20 23 21 17 15 15 15 14 13 13 16 19 19 18 17 16 16 17 18 19 19 17 15 15 15
0 0 0 0 0 0 1 5 8 10 12 13 14 14 15 15 15 14 15 18 22 22 18 16 16 16 15 14 13 15 18 19 18 17 15 15 16 16 17 16 15 14 14 14
0 1 1 0 0 1 2 4 6 6 7 9 12 15 16 16 14 13 13 16 19 20 18 17 16 16 16 15 15 16 18 17 16 14 14 16 17 16 15 15 14 14 14 14
1 1 2 1 1 2 2 3 3 3 4 6 9 12 14 13 12 12 12 13 14 16 17 17 16 15 14 14 15 16 16 14 13 12 13 15 16 14 13 13 13 13 14 14
0 1 2 1 1 2 2 2 2 1 2 3 5 7 9 8 8 8 8 8 9 13 16 17 15 13 12 11 12 13 12 11 11 11 11 11 11 11 10 10 9 10 11 10
0 0 1 1 1 1 1 1 1 1 1 2 3 4 5 5 4 4 4 5 7 11 14 15 14 11 9 8 9 9 9 8 8 8 8 8 8 8 7 6 5 4 4 5
0 0 0 0 0 0 0 0 0 1 2 3 3 3 4 4 4 3 3 5 7 10 12 13 11 8 7 6 6 7 7 7 6 6 6 7 8 8 6 4 2 1 1 1
0 0 0 0 0 0 0 0 0 1 2 3 3 3 3 4 4 4 5 6 8 9 10 10 8 6 6 6 6 7 7 7 7 6 7 8 9 9 7 4 2 1 0 0
0 0 0 0 0 0 1 1 1 2 3 3 3 3 3 3 4 5 5 6 7 8 8 8 7 6 6 7 8 9 9 8 7 6 7 8 8 6 5 3 2 1 0 0
0 0 0 1 0 0 2 3 3 3 3 3 3 1 1 3 4 5 5 4 4 5 6 6 6 6 7 9 9 9 9 8 6 6 6 6 5 3 1 1 1 1 1 0
0 0 0 0 0 0 2 4 4 3 3 3 3 1 1 2 3 5 5 4 2 2 4 5 5 6 6 8 8 7 6 4 4 5 5 3 2 0 0 0 1 2 1 1
0 0 0 0 0 1 2 3 3 3 3 2 2 1 1 1 2 4 4 2 0 1 2 3 3 3 4 5 6 5 3 1 1 2 2 1 0 0 0 0 1 2 1 0
0 0 0 1 1 1 3 3 4 3 2 1 1 1 0 0 2 3 3 1 0 0 1 1 1 1 2 3 3 2 1 0 0 0 0 0 0 0 0 0 1 1 1 0
0 1 1 2 2 3 3 3 4 3 1 0 0 0 0 0 2 3 2 0 0 0 0 0 0 0 1 2 2 0 0 1 1 1 0 0 0 0 0 0 0 1 1 1
1 2 3 3 3 3 2 2 2 1 0 0 0 0 0 0 1 2 1 0 0 0 0 0 0 0 1 2 2 1 1 2 2 2 1 0 0 0 0 0 0 0 1 1
2 2 2 2 2 1 1 1 0 0 0 0 0 0 0 0 0 0 0 0 0 0 0 0 0 0 1 2 2 2 3 3 3 3 2 0 0 0 0 0 0 0 0 1
1 1 1 1 1 0 0 0 0 0 0 0 0 0 0 0 0 0 0 0 0 0 0 0 0 0 0 1 1 3 3 3 3 2 1 0 0 0 0 0 0 0 0 0
0 0 0 0 0 0 0 0 0 0 0 0 0 0 0 0 0 0 0 0 0 0 0 0 0 0 0 0 1 2 3 3 3 1 0 0 0 0 0 0 0 0 0 0
0 0 0 0 0 0 0 0 0 0 0 0 0 0 0 0 0 0 0 0 0 0 0 0 0 0 0 0 1 2 3 2 2 1 0 0 0 0 0 0 0 0 0 0
0 0 0 0 0 0 0 0 0 0 0 0 0 0 0 0 0 0 0 0 0 0 0 0 0 0 0 0 1 1 1 1 1 0 0 0 0 0 0 0 0 0 0 0
0 0 0 0 0 0 0 0 0 0 0 0 0 0 0 0 0 0 0 0 0 0 0 0 0 0 0 0 0 1 0 0 0 0 0 0 0 0 0 0 0 0 0 0